Regional Weather Roundup
Issued by NWS Newport/Morehead, NC

Current Version | Previous Version | Graphics & Text | Print | Product List | Glossary Off
Versions: 1 2 3 4 5 6 7 8 9 10 11 12 13 14 15 16 17 18 19 20 21 22 23 24 25 26 27 28 29 30 31 32 33 34 35 36 37 38 39 40 41 42 43 44 45 46 47 48 49 50

000
ASUS42 KMHX 232213
RWRMHX
WEATHER ROUNDUP FOR EASTERN NORTH CAROLINA
NATIONAL WEATHER SERVICE NEWPORT/MOREHEAD CITY NC
500 PM EST MON JAN 23 2017

NOTE: "FAIR" INDICATES FEW OR NO CLOUDS BELOW 12,000 FEET
WITH NO SIGNIFICANT WEATHER AND/OR OBSTRUCTIONS TO VISIBILITY

NCZ015>017-031-032-045>047-102-103-232300-
NORTH COAST

CITY           SKY/WX    TMP DP  RH WIND       PRES   REMARKS
EDENTON        CLOUDY    61  51  69 CALM      29.25S
ELIZABETH CITY PTCLDY    58  47  66 W6        29.24R
KITTY HAWK     NOT AVBL
MANTEO         PTCLDY    54  52  94 CALM      29.24R

$$

NCZ045>047-081-094-103-104-232300-
CENTRAL COAST

CITY           SKY/WX    TMP DP  RH WIND       PRES   REMARKS
FRISCO         MOCLDY    59  50  72 VRB3      29.21F

$$

NCZ095-097-098-100-101-232300-
SOUTHERN COAST

CITY           SKY/WX    TMP DP  RH WIND       PRES   REMARKS
BEAUFORT       RAIN      57  54  89 SE5       29.24R
CEDAR ISLAND   NOT AVBL
JACKSONVILLE   LGT RAIN  56  52  86 N9        29.24R FOG
PINEY ISLAND   LGT RAIN N/A N/A N/A NE7       29.23R
WILMINGTON     CLOUDY    55  53  93 W7        29.25R


$$

NCZ011>013-027>030-043-044-078>080-089-090>093-098-232300-
COASTAL PLAIN

CITY           SKY/WX    TMP DP  RH WIND       PRES   REMARKS
AHOSKIE          N/A     59  46  63 CALM      29.25F
CLINTON        RAIN      56  53  88 W5        29.27R
ELIZABETHTOWN  MOCLDY    56  49  74 W7        29.27R
GOLDSBORO      LGT RAIN  61  49  65 NW9       29.23R
GREENVILLE     CLOUDY    61  48  63 N6        29.29S
HAVELOCK       LGT RAIN  56  53  90 S5        29.24R
KENANSVILLE    RAIN      54  50  87 SE7       29.27R FOG
KINSTON        CLOUDY    57  52  82 CALM      29.24R
NEW BERN       RAIN      58  52  80 CALM      29.24R
RICHLANDS      RAIN      54  53  97 NW3       29.26R
ROCKY MOUNT    PTCLDY    59  47  64 N6        29.26R
WASHINGTON     CLOUDY    59  49  69 N3          N/A
WHITEVILLE     CLOUDY    56  49  77 W5        29.27R

$$

AMZ130-135-150-152-154-156-158-170-250-252-270-ANZ085-086-088-633-658-670-232300-
MARINE OBSERVATIONS

STATION/POSITION TIME  TEMP    WIND        PRES    WAVE   SWELL
                       AIR SEA DIR/SP/G            HT/PER HT/PER
                 (UTC) (F)     (DEG/KT/KT) (MB)    (FT/S) (FT/S)
CHESAPEAKE LIGHT NOT AVBL
64 E VA BEACH    2150   55 55  210/  6/ 10  989.9   11/11  11/11
DUCK             2136   58 47  270/  6/  9  988.9
2 E DUCK         2130      47                N/A     8/11   5/11
OREGON INLET     2136   57 50   CALM  /  2  989.8
13E OREGON INLT  NOT AVBL
HATTERAS CG      2136   58 56   30/  4/  6  989.1
DIAMOND BUOY     2150   62 76   10/ 10/ 12  989.0    7/ 9   7/ 9
CAPE LOOKOUT     2100   58      70/  2/  3  989.6
BEAUFORT LAB     2136   57 53  110/  4/  4  988.6
30 SE NEW RVR IN 2108   56 68  320/ 12/ 17  989.1
30 SE NEW RVR IN 2143      68                N/A     7/10   3/11
27 SE WRIGHTSVLE 2108   59 68  250/ 12/ 16  988.0
5 SE WRIGHTSVLE  2108   54 54  300/ 12/ 16  989.8
225 S CAPE HAT   2150   71 71  230/ 21/ 27  991.7   13/10  11/10
41 SE CHARLESTON 2050   60 69  280/ 23/ 29  991.0    9/ 8   3/11

$$




USA.gov is the U.S. government's official web portal to all federal, state and local government web resources and services.